This is the latest recevied weather packets stored in our database for station/object YO8SDE-8. If no packets are shown the sender has not sent any weather packets the latest 10 day(s).
| Time | Temp. | Humidity | Pressure | Rain* | Wind** | Luminosity | Snow |
|---|---|---|---|---|---|---|---|
| 1777707664 | 14.44° C | 55% | 1013.6 hPa | 0 mm | - | - | - |
| 1777707364 | 14.44° C | 56% | 1013.6 hPa | 0 mm | - | - | - |
| 1777707064 | 14.44° C | 56% | 1013.5 hPa | 0 mm | - | - | - |
| 1777706764 | 13.89° C | 56% | 1013.4 hPa | 0 mm | - | - | - |
| 1777706464 | 13.89° C | 56% | 1013.5 hPa | 0 mm | - | - | - |
| 1777706164 | 13.89° C | 56% | 1013.4 hPa | 0 mm | - | - | - |
| 1777705864 | 14.44° C | 55% | 1013.4 hPa | 0 mm | - | - | - |
| 1777705564 | 14.44° C | 56% | 1013.4 hPa | 0 mm | - | - | - |
| 1777705264 | 13.89° C | 58% | 1013.5 hPa | 0 mm | - | - | - |
| 1777704964 | 13.33° C | 58% | 1013.6 hPa | 0 mm | - | - | - |
| 1777704664 | 13.89° C | 57% | 1013.6 hPa | 0 mm | - | - | - |
| 1777704364 | 14.44° C | 57% | 1013.5 hPa | 0 mm | - | - | - |
| 1777704064 | 14.44° C | 57% | 1013.5 hPa | 0 mm | - | - | - |
| 1777703764 | 14.44° C | 56% | 1013.5 hPa | 0 mm | - | - | - |
| 1777703464 | 14.44° C | 56% | 1013.3 hPa | 0 mm | - | - | - |
| 1777703164 | 14.44° C | 57% | 1013.5 hPa | 0 mm | - | - | - |
| 1777702864 | 13.89° C | 59% | 1013.3 hPa | 0 mm | - | - | - |
| 1777702564 | 13.33° C | 59% | 1013.3 hPa | 0 mm | - | - | - |
| 1777702264 | 13.89° C | 61% | 1013.3 hPa | 0 mm | - | - | - |
| 1777701964 | 13.33° C | 62% | 1013.3 hPa | 0 mm | - | - | - |
| 1777701664 | 13.33° C | 63% | 1013.3 hPa | 0 mm | - | - | - |
| 1777701364 | 12.78° C | 64% | 1013.2 hPa | 0 mm | - | - | - |
| 1777701064 | 12.22° C | 64% | 1013.3 hPa | 0 mm | - | - | - |
| 1777700764 | 12.22° C | 66% | 1013.4 hPa | 0 mm | - | - | - |
| 1777700464 | 11.67° C | 68% | 1013.3 hPa | 0 mm | - | - | - |
* Rain latest hour (hover to see other rain measurements)
** Current wind speed in m/s (hover to see current wind gust speed)